JCSAT-12 (JCSAT-RA)

Last updated on Thu Jul 03 2025 00:02:45 GMT+0000 (Coordinated Universal Time)

1 35755U 09044A 25183.63306148 -.00000320 00000+0 00000+0 0 9996 2 35755 0.0172 14.3302 0000081 6.9172 259.6096 1.00272439 58103
UTC large
Height (km)
Speed (km/s)
/
Latitude / Longitude
Inclination (degrees)
Orbital Period (minutes)
Azimuth
Elevation
Range (km)
Doppler Factor

Next 0 passes for location: London (51.5072 / 0.1276)

Sorry there are no passes over London.